Weatherford, OK

4:06 AM CDT on July 23, 2017 (GMT -0500)
Weatherford

Weather History for KOJA - October, 2012

Change the Weather History Date:

Thursday, October 4, 2012

  Actual Average (KJWG) Record (KJWG)
Temperature  
Mean Temperature 60 °F -  
Max Temperature 66 °F 79 °F 96 °F (1963)
Min Temperature 55 °F 54 °F 35 °F (2014)
Degree Days  
Heating Degree Days 4    
Growing Degree Days 10 (Base 50)    
Moisture  
Dew Point 48 °F    
Average Humidity 66    
Maximum Humidity 94    
Minimum Humidity 55    
Precipitation  
Precipitation 0.00 in - - ()
Sea Level Pressure  
Sea Level Pressure 30.12 in    
Wind  
Wind Speed 11 mph (NE)    
Max Wind Speed 21 mph    
Max Gust Speed 31 mph    
Visibility 10 miles    
Events      
Averages and records for this station are not official NWS values.
T = Trace of Precipitation, MM = Missing Value Source: NWS Daily Summary

Daily Weather History Graph

Daily Weather History Graph

Search for Another Location

Airport or City:

Trip Planner

Search our weather history database for the weather conditions in past years. The results will help you decide how hot, cold, wet, or windy it might be!

Date:

Astronomy

Oct. 04, 2012 Rise Set
Actual Time 7:32 AM CDT 7:13 PM CDT
Civil Twilight 7:06 AM CDT 7:38 PM CDT
Nautical Twilight 6:37 AM CDT 8:08 PM CDT
Astronomical Twilight 6:07 AM CDT 8:37 PM CDT
Moon 9:59 PM CDT (10/4) 11:41 AM CDT (10/4)
Length of Visible Light 12h 31m
Length of Day
11h 41m
Waning Gibbous, 82% of the Moon is Illuminated
Oct 4
Waning Gibbous
Oct 8
Last Quarter
Oct 15
New
Oct 21
First Quarter
Oct 29
Full

Hourly Weather History & Observations

Time (CDT) Temp. Dew Point Humidity Pressure Visibility Wind Dir Wind Speed Gust Speed Precip Events Conditions
12:15 AM 64.4 °F 53.6 °F 68% 29.97 in 10.0 mi SSE 10.4 mph - N/A   Clear
12:35 AM 64.4 °F 53.6 °F 68% 29.95 in 10.0 mi SSE 12.7 mph - N/A   Clear
12:55 AM 66.2 °F 53.6 °F 64% 29.97 in 10.0 mi South 12.7 mph 18.4 mph N/A   Clear
1:15 AM 66.2 °F 53.6 °F 64% 29.97 in 10.0 mi South 12.7 mph 19.6 mph N/A   Clear
1:35 AM 64.4 °F 53.6 °F 68% 29.97 in 10.0 mi South 11.5 mph 18.4 mph N/A   Clear
1:55 AM 64.4 °F 53.6 °F 68% 29.97 in 10.0 mi South 11.5 mph 18.4 mph N/A   Clear
2:15 AM 64.4 °F 53.6 °F 68% 29.97 in 10.0 mi South 11.5 mph - N/A   Clear
2:35 AM 64.4 °F 53.6 °F 68% 29.97 in 10.0 mi South 12.7 mph 17.3 mph N/A   Clear
2:55 AM 62.6 °F 53.6 °F 72% 29.98 in 10.0 mi South 10.4 mph - N/A   Clear
3:15 AM 62.6 °F 53.6 °F 72% 29.97 in 10.0 mi South 12.7 mph - N/A   Clear
3:35 AM 62.6 °F 53.6 °F 72% 29.97 in 10.0 mi South 10.4 mph - N/A   Clear
3:55 AM 62.6 °F 53.6 °F 72% 29.97 in 10.0 mi South 9.2 mph - N/A   Clear
4:15 AM 62.6 °F 53.6 °F 72% 29.98 in 10.0 mi South 10.4 mph - N/A   Clear
4:35 AM 62.6 °F 53.6 °F 72% 29.99 in 10.0 mi South 10.4 mph - N/A   Clear
4:55 AM 62.6 °F 53.6 °F 72% 29.99 in 10.0 mi SSE 9.2 mph - N/A   Clear
5:15 AM 62.6 °F 53.6 °F 72% 29.99 in 10.0 mi SSE 8.1 mph - N/A   Clear
5:35 AM 62.6 °F 53.6 °F 72% 30.02 in 10.0 mi SE 4.6 mph - N/A   Clear
5:55 AM 60.8 °F 53.6 °F 77% 30.06 in 10.0 mi NNE 3.5 mph - N/A   Clear
6:15 AM 59.0 °F 53.6 °F 82% 30.07 in 10.0 mi Calm Calm - N/A   Clear
6:35 AM 57.2 °F 53.6 °F 88% 30.09 in 10.0 mi Calm Calm - N/A   Clear
7:15 AM 57.2 °F 53.6 °F 88% 30.09 in 10.0 mi Calm Calm - N/A   Clear
8:15 AM 55.4 °F 53.6 °F 94% 30.11 in 10.0 mi Calm Calm - N/A   Clear
8:35 AM 55.4 °F 53.6 °F 94% 30.13 in 10.0 mi Calm Calm - N/A   Clear
8:55 AM 59.0 °F 55.4 °F 88% 30.14 in 10.0 mi Calm Calm - N/A   Scattered Clouds
9:15 AM 59.0 °F 51.8 °F 77% 30.16 in 10.0 mi North 13.8 mph 25.3 mph N/A   Mostly Cloudy
9:35 AM 57.2 °F 46.4 °F 67% 30.18 in 10.0 mi North 16.1 mph 26.5 mph N/A   Overcast
9:55 AM 55.4 °F 46.4 °F 72% 30.19 in 10.0 mi North 16.1 mph 25.3 mph N/A   Overcast
10:35 AM 55.4 °F 44.6 °F 67% 30.20 in 10.0 mi North 18.4 mph 27.6 mph N/A   Overcast
10:55 AM 55.4 °F 42.8 °F 63% 30.21 in 10.0 mi North 20.7 mph 31.1 mph N/A   Overcast
11:15 AM 55.4 °F 44.6 °F 67% 30.21 in 10.0 mi North 17.3 mph 27.6 mph N/A   Overcast
11:35 AM 55.4 °F 44.6 °F 67% 30.21 in 10.0 mi North 16.1 mph 25.3 mph N/A   Overcast
12:15 PM 57.2 °F 44.6 °F 63% 30.21 in 10.0 mi North 15.0 mph 21.9 mph N/A   Overcast
12:55 PM 57.2 °F 44.6 °F 63% 30.22 in 10.0 mi North 16.1 mph 21.9 mph N/A   Overcast
1:15 PM 59.0 °F 44.6 °F 59% 30.22 in 10.0 mi North 15.0 mph 21.9 mph N/A   Overcast
1:35 PM 59.0 °F 44.6 °F 59% 30.21 in 10.0 mi NNE 18.4 mph 21.9 mph N/A   Overcast
2:15 PM 60.8 °F 44.6 °F 55% 30.20 in 10.0 mi North 17.3 mph 21.9 mph N/A   Overcast
2:35 PM 60.8 °F 44.6 °F 55% 30.20 in 10.0 mi North 18.4 mph 24.2 mph N/A   Overcast
2:55 PM 60.8 °F 44.6 °F 55% 30.20 in 10.0 mi North 13.8 mph - N/A   Overcast
3:15 PM 60.8 °F 44.6 °F 55% 30.19 in 10.0 mi NNE 15.0 mph 18.4 mph N/A   Overcast
3:35 PM 60.8 °F 44.6 °F 55% 30.18 in 10.0 mi NNE 15.0 mph 20.7 mph N/A   Overcast
3:55 PM 60.8 °F 44.6 °F 55% 30.18 in 10.0 mi North 12.7 mph 19.6 mph N/A   Overcast
4:15 PM 60.8 °F 44.6 °F 55% 30.19 in 10.0 mi NNE 12.7 mph 16.1 mph N/A   Overcast
4:35 PM 60.8 °F 44.6 °F 55% 30.19 in 10.0 mi North 15.0 mph - N/A   Overcast
4:55 PM 60.8 °F 44.6 °F 55% 30.19 in 10.0 mi North 12.7 mph - N/A   Overcast
5:15 PM 60.8 °F 44.6 °F 55% 30.18 in 10.0 mi North 11.5 mph - N/A   Overcast
6:15 PM 60.8 °F 44.6 °F 55% 30.18 in 10.0 mi North 11.5 mph - N/A   Overcast
6:35 PM 59.0 °F 44.6 °F 59% 30.18 in 10.0 mi North 9.2 mph - N/A   Overcast
7:15 PM 59.0 °F 44.6 °F 59% 30.18 in 10.0 mi North 9.2 mph - N/A   Overcast
7:35 PM 59.0 °F 44.6 °F 59% 30.18 in 10.0 mi NNE 12.7 mph - N/A   Overcast
7:55 PM 59.0 °F 42.8 °F 55% 30.18 in 10.0 mi NNE 10.4 mph - N/A   Overcast
8:15 PM 59.0 °F 44.6 °F 59% 30.18 in 10.0 mi NNE 9.2 mph - N/A   Overcast
8:35 PM 59.0 °F 44.6 °F 59% 30.18 in 10.0 mi NNE 5.8 mph - N/A   Overcast
8:55 PM 59.0 °F 42.8 °F 55% 30.18 in 10.0 mi NNE 11.5 mph - N/A   Overcast
9:15 PM 59.0 °F 42.8 °F 55% 30.18 in 10.0 mi NNE 9.2 mph - N/A   Overcast
9:35 PM 59.0 °F 42.8 °F 55% 30.19 in 10.0 mi NE 6.9 mph - N/A   Overcast
10:15 PM 57.2 °F 42.8 °F 59% 30.19 in 10.0 mi NNE 9.2 mph - N/A   Overcast
10:35 PM 57.2 °F 42.8 °F 59% 30.20 in 10.0 mi NNE 9.2 mph - N/A   Overcast
11:15 PM 55.4 °F 42.8 °F 63% 30.21 in 10.0 mi NNE 8.1 mph - N/A   Overcast
11:35 PM 55.4 °F 42.8 °F 63% 30.20 in 10.0 mi NE 10.4 mph - N/A   Overcast
11:55 PM 55.4 °F 42.8 °F 63% 30.20 in 10.0 mi NNE 10.4 mph - N/A   Overcast